Hourly Data Report for September 07, 2003

SHERBROOKE A
QUEBEC

45°26'00.000" N
71°41'00.000" W
241.40 m
7028124
71610
YSC

Download Data

Hourly Data (September 2003)
Hourly Data Report for September 7, 2003
TIME
LST
Temp Definition
°C
Dew Point Definition
°C
Rel Hum Definition
%
Precip. Amount Definition
mm

Wind Dir Definition
10's deg

Wind Spd Definition
km/h
Visibility Definition
km
Stn Press Definition
kPa
Hmdx Definition


Wind Chill Definition


Weather Definition


00:00 8.0 7.2 95     0 15.0 98.70      
01:00 7.5 7.1 97     0 15.0 98.66      
02:00 8.7 8.3 97   9 4 15.0 98.62      
03:00 10.1 9.7 97     0 15.0 98.59      
04:00 11.4 10.9 97     0 15.0 98.60      
05:00 11.8 11.2 96     0 15.0 98.63      
06:00 12.8 11.3 91   25 4 15.0 98.66      
07:00 13.8 11.6 87   23 6 24.1 98.69     Cloudy
08:00 14.9 11.9 82   23 6 24.1 98.71     Mostly Cloudy
09:00 16.6 12.3 76   27 9 24.1 98.74     Mostly Cloudy
10:00 16.0 12.3 79   28 9 24.1 98.75     Cloudy
11:00 15.5 12.3 81   29 11 24.1 98.76     Cloudy
12:00 15.5 12.6 83   27 9 24.1 98.74     Cloudy
13:00 15.7 13.0 84   27 13 24.1 98.74     Cloudy
14:00 16.4 13.2 81   22 11 24.1 98.73     Mostly Cloudy
15:00 17.0 12.7 76   28 15 24.1 98.72     Mostly Cloudy
16:00 16.7 12.5 76   29 9 24.1 98.74     Mostly Cloudy
17:00 16.2 11.4 73   30 7 15.0 98.80      
18:00 14.5 10.2 75   32 7 15.0 98.83      
19:00 10.3 8.4 88   36 4 15.0 98.90      
20:00 7.7 6.7 93     0 15.0 98.95      
21:00 8.3 7.6 95     0 15.0 98.99      
22:00 8.6 7.9 95   23 4 15.0 99.02      
23:00 7.2 6.8 97   12 4 3.2 99.03      

Notes on Data Quality.

Legend

  • E = Estimated
  • M = Missing
  • NA = Not Available*
  • [empty] = Indicates an unobserved value
Date modified: